• In Belgien
  • Länderverzeichnis
  • Für 7 Tage
  • Wassertemperatur
  • Satellitenkarten
  • Wetterkarte
  • Widgets
  • user-avatar
    Anmelden

    Stündliche Wetter Hobart

    Heute, 25 Februar, Sonntag

    Zeit Temperatur Niederschläge Wind Luftdruck Luftfeuchtigkeit
    00:00 +8°C° 0,1 mm 5 m/S 742 mmHg 84%
    01:00 +8°C° 0,1 mm 5 m/S 742 mmHg 87%
    02:00 +7°C° 0 mm 5 m/S 743 mmHg 88%
    03:00 +7°C° 0 mm 5 m/S 743 mmHg 90%
    04:00 +7°C° 0 mm 6 m/S 744 mmHg 92%
    05:00 +7°C° 0 mm 5 m/S 744 mmHg 89%
    06:00 +8°C° 0 mm 5 m/S 745 mmHg 87%
    07:00 +8°C° 0 mm 5 m/S 745 mmHg 85%
    08:00 +10°C° 0 mm 5 m/S 746 mmHg 75%
    09:00 +13°C° 0 mm 5 m/S 747 mmHg 65%
    10:00 +14°C° 0 mm 5 m/S 747 mmHg 56%
    11:00 +15°C° 0 mm 5 m/S 747 mmHg 52%
    12:00 +17°C° 0 mm 4 m/S 748 mmHg 49%
    13:00 +18°C° 0 mm 4 m/S 748 mmHg 45%
    14:00 +18°C° 0 mm 4 m/S 748 mmHg 45%
    15:00 +19°C° 0 mm 4 m/S 749 mmHg 44%
    16:00 +19°C° 0 mm 4 m/S 749 mmHg 44%
    17:00 +17°C° 0 mm 4 m/S 749 mmHg 53%
    18:00 +14°C° 0 mm 3 m/S 750 mmHg 61%
    19:00 +12°C° 0 mm 3 m/S 750 mmHg 70%
    20:00 +10°C° 0 mm 2 m/S 751 mmHg 77%
    21:00 +9°C° 0 mm 2 m/S 751 mmHg 84%
    22:00 +9°C° 0 mm 1 m/S 752 mmHg 92%
    23:00 +8°C° 0 mm 1 m/S 752 mmHg 93%

    Morgen, 26 Februar, Montag

    Zeit Temperatur Niederschläge Wind Luftdruck Luftfeuchtigkeit
    00:00 +8°C° 0 mm 1 m/S 752 mmHg 94%
    01:00 +8°C° 0 mm 1 m/S 752 mmHg 95%
    02:00 +8°C° 0 mm 1 m/S 752 mmHg 96%
    03:00 +8°C° 0 mm 1 m/S 752 mmHg 96%
    04:00 +7°C° 0 mm 1 m/S 752 mmHg 96%
    05:00 +8°C° 0 mm 1 m/S 752 mmHg 93%
    06:00 +9°C° 0 mm 1 m/S 752 mmHg 89%
    07:00 +10°C° 0 mm 1 m/S 752 mmHg 85%
    08:00 +13°C° 0 mm 1 m/S 752 mmHg 72%
    09:00 +18°C° 0 mm 1 m/S 752 mmHg 59%
    10:00 +22°C° 0 mm 1 m/S 752 mmHg 46%
    11:00 +23°C° 0 mm 2 m/S 752 mmHg 42%
    12:00 +25°C° 0 mm 2 m/S 752 mmHg 39%
    13:00 +26°C° 0 mm 3 m/S 752 mmHg 35%
    14:00 +25°C° 0 mm 3 m/S 752 mmHg 38%
    15:00 +23°C° 0 mm 4 m/S 751 mmHg 40%
    16:00 +22°C° 0 mm 4 m/S 751 mmHg 43%
    17:00 +20°C° 0 mm 4 m/S 751 mmHg 52%
    18:00 +18°C° 0 mm 3 m/S 751 mmHg 61%
    19:00 +16°C° 0 mm 3 m/S 752 mmHg 69%
    20:00 +14°C° 0 mm 3 m/S 752 mmHg 75%
    21:00 +13°C° 0 mm 3 m/S 752 mmHg 80%
    22:00 +13°C° 0 mm 2 m/S 752 mmHg 85%
    23:00 +13°C° 0 mm 2 m/S 752 mmHg 88%

    übermorgen, 27 Februar, Dienstag

    Zeit Temperatur Niederschläge Wind Luftdruck Luftfeuchtigkeit
    00:00 +12°C° 0 mm 2 m/S 751 mmHg 91%
    01:00 +12°C° 0 mm 2 m/S 751 mmHg 94%
    02:00 +10°C° 0 mm 2 m/S 751 mmHg 94%
    03:00 +10°C° 0 mm 3 m/S 750 mmHg 94%
    04:00 +10°C° 0 mm 3 m/S 750 mmHg 94%
    05:00 +11°C° 0 mm 3 m/S 750 mmHg 91%
    06:00 +11°C° 0 mm 3 m/S 750 mmHg 87%
    07:00 +12°C° 0 mm 3 m/S 750 mmHg 83%
    08:00 +15°C° 0 mm 4 m/S 750 mmHg 69%
    09:00 +19°C° 0 mm 4 m/S 749 mmHg 55%
    10:00 +22°C° 0 mm 5 m/S 749 mmHg 41%
    11:00 +25°C° 0 mm 5 m/S 748 mmHg 35%
    12:00 +27°C° 0 mm 5 m/S 748 mmHg 30%
    13:00 +30°C° 0 mm 5 m/S 747 mmHg 24%
    14:00 +30°C° 0 mm 5 m/S 746 mmHg 25%
    15:00 +30°C° 0 mm 5 m/S 746 mmHg 25%
    16:00 +30°C° 0 mm 5 m/S 745 mmHg 26%
    17:00 +27°C° 0 mm 5 m/S 745 mmHg 35%
    18:00 +25°C° 0 mm 5 m/S 745 mmHg 45%
    19:00 +21°C° 0 mm 4 m/S 744 mmHg 54%
    20:00 +20°C° 0 mm 4 m/S 744 mmHg 60%
    21:00 +19°C° 0 mm 4 m/S 744 mmHg 66%
    22:00 +18°C° 0 mm 4 m/S 744 mmHg 71%
    23:00 +17°C° 0 mm 4 m/S 743 mmHg 73%

    28 Februar, Mittwoch

    Zeit Temperatur Niederschläge Wind Luftdruck Luftfeuchtigkeit
    00:00 +17°C° 0 mm 4 m/S 743 mmHg 74%
    01:00 +15°C° 0 mm 4 m/S 742 mmHg 76%
    02:00 +17°C° 0 mm 4 m/S 741 mmHg 75%
    03:00 +17°C° 0 mm 4 m/S 740 mmHg 73%
    04:00 +16°C° 0 mm 5 m/S 740 mmHg 72%
    05:00 +17°C° 0 mm 5 m/S 739 mmHg 70%
    06:00 +17°C° 0 mm 5 m/S 739 mmHg 68%
    07:00 +19°C° 0 mm 5 m/S 738 mmHg 65%
    08:00 +19°C° 0,6 mm 4 m/S 738 mmHg 72%
    09:00 +18°C° 0,6 mm 3 m/S 737 mmHg 78%
    10:00 +18°C° 0,6 mm 2 m/S 737 mmHg 84%
    11:00 +18°C° 1,4 mm 3 m/S 737 mmHg 80%
    12:00 +18°C° 1,4 mm 4 m/S 736 mmHg 77%
    13:00 +16°C° 1,4 mm 6 m/S 736 mmHg 73%
    14:00 +16°C° 0,2 mm 5 m/S 736 mmHg 74%
    15:00 +15°C° 0,2 mm 5 m/S 736 mmHg 75%
    16:00 +14°C° 0,2 mm 5 m/S 735 mmHg 76%
    17:00 +14°C° 0,3 mm 5 m/S 737 mmHg 79%
    18:00 +13°C° 0,3 mm 5 m/S 738 mmHg 82%
    19:00 +13°C° 0,3 mm 5 m/S 739 mmHg 86%
    20:00 +13°C° 0,1 mm 6 m/S 740 mmHg 86%
    21:00 +11°C° 0,1 mm 6 m/S 742 mmHg 86%
    22:00 +11°C° 0,1 mm 7 m/S 743 mmHg 86%
    23:00 +11°C° 0 mm 6 m/S 743 mmHg 86%

    1 März, Donnerstag

    Zeit Temperatur Niederschläge Wind Luftdruck Luftfeuchtigkeit
    00:00 +10°C° 0 mm 6 m/S 744 mmHg 86%
    01:00 +10°C° 0 mm 5 m/S 744 mmHg 87%
    02:00 +12°C° 0 mm 5 m/S 744 mmHg 87%
    03:00 +12°C° 0 mm 5 m/S 744 mmHg 87%
    04:00 +12°C° 0 mm 5 m/S 745 mmHg 87%
    05:00 +13°C° 0 mm 5 m/S 745 mmHg 86%
    06:00 +13°C° 0 mm 5 m/S 745 mmHg 85%
    07:00 +13°C° 0 mm 5 m/S 746 mmHg 84%
    08:00 +14°C° 0 mm 5 m/S 746 mmHg 81%
    09:00 +14°C° 0 mm 5 m/S 747 mmHg 77%
    10:00 +15°C° 0 mm 5 m/S 747 mmHg 73%
    11:00 +15°C° 0 mm 5 m/S 747 mmHg 71%
    12:00 +16°C° 0 mm 5 m/S 747 mmHg 69%
    13:00 +16°C° 0 mm 5 m/S 747 mmHg 67%
    14:00 +18°C° 0 mm 4 m/S 747 mmHg 65%
    15:00 +18°C° 0 mm 4 m/S 747 mmHg 63%
    16:00 +18°C° 0 mm 4 m/S 747 mmHg 62%
    17:00 +17°C° 0 mm 4 m/S 747 mmHg 67%
    18:00 +16°C° 0 mm 3 m/S 748 mmHg 72%
    19:00 +14°C° 0 mm 3 m/S 748 mmHg 77%
    20:00 +13°C° 0 mm 3 m/S 749 mmHg 83%
    21:00 +12°C° 0 mm 3 m/S 749 mmHg 88%
    22:00 +12°C° 0 mm 3 m/S 749 mmHg 93%
    23:00 +11°C° 0 mm 3 m/S 749 mmHg 94%

    2 März, Freitag

    Zeit Temperatur Niederschläge Wind Luftdruck Luftfeuchtigkeit
    00:00 +12°C° 0 mm 2 m/S 749 mmHg 95%
    01:00 +10°C° 0 mm 2 m/S 749 mmHg 97%
    02:00 +10°C° 0 mm 2 m/S 749 mmHg 97%
    03:00 +10°C° 0 mm 2 m/S 749 mmHg 97%
    04:00 +10°C° 0 mm 2 m/S 750 mmHg 97%
    05:00 +12°C° 0 mm 2 m/S 750 mmHg 94%
    06:00 +12°C° 0 mm 2 m/S 750 mmHg 92%
    07:00 +13°C° 0 mm 2 m/S 751 mmHg 89%
    08:00 +16°C° 0 mm 1 m/S 751 mmHg 77%
    09:00 +20°C° 0 mm 1 m/S 751 mmHg 64%
    10:00 +23°C° 0 mm 1 m/S 751 mmHg 52%
    11:00 +24°C° 0 mm 1 m/S 751 mmHg 50%
    12:00 +24°C° 0 mm 2 m/S 750 mmHg 49%
    13:00 +24°C° 0 mm 2 m/S 750 mmHg 47%
    14:00 +24°C° 0 mm 2 m/S 750 mmHg 49%
    15:00 +24°C° 0 mm 3 m/S 750 mmHg 50%
    16:00 +22°C° 0 mm 3 m/S 750 mmHg 52%
    17:00 +20°C° 0 mm 3 m/S 750 mmHg 60%
    18:00 +18°C° 0 mm 3 m/S 750 mmHg 69%
    19:00 +17°C° 0 mm 3 m/S 750 mmHg 78%
    20:00 +14°C° 0 mm 3 m/S 750 mmHg 84%
    21:00 +13°C° 0 mm 3 m/S 750 mmHg 90%
    22:00 +13°C° 0 mm 2 m/S 750 mmHg 96%
    23:00 +12°C° 0 mm 3 m/S 750 mmHg 97%
    Mehr zeigen